Regional Weather Roundup
Issued by NWS

Home | Current Version | Previous Version | Text Only | Print | Product List | Glossary Off
Versions: 1 2 3 4 5 6 7 8 9 10 11 12 13 14 15 16 17 18 19 20 21 22 23 24 25 26 27 28 29 30 31 32 33 34 35 36 37 38 39 40 41 42 43 44 45 46 47 48 49 50

000
ASUS43 KBIS 020110
RWRND

NORTH DAKOTA REGIONAL WEATHER ROUNDUP
NATIONAL WEATHER SERVICE BISMARCK ND
800 PM CDT MON SEP 01 2014

NOTE: "FAIR" INDICATES FEW OR NO CLOUDS BELOW 12,000 FEET WITH NO
SIGNIFICANT WEATHER AND/OR OBSTRUCTIONS TO VISIBILITY.


NDZ001>003-009>011-017-020200-
NORTHWEST NORTH DAKOTA

CITY           SKY/WX    TMP DP  RH WIND       PRES   REMARKS
WILLISTON      PTCLDY    66  47  50 W7        29.82S
MINOT          PTCLDY    66  44  45 W8        29.78R
MINOT AFB      CLEAR     63  51  65 W8        29.78R
$$

NDZ018>021-031>035-040>046-020200-
SOUTHWEST NORTH DAKOTA

CITY           SKY/WX    TMP DP  RH WIND       PRES   REMARKS
BISMARCK       PTCLDY    68  48  48 NW3       29.83R
DICKINSON      CLEAR     62  49  62 W6        29.86R
GARRISON         N/A     61  51  70 W6        29.81R
HETTINGER ARPT MOCLDY    63  49  60 W5        29.90S
$$

NDZ004>008-012>016-024-026-027-054-020200-
NORTHEAST NORTH DAKOTA

CITY           SKY/WX    TMP DP  RH WIND       PRES   REMARKS
GRAND FORKS    PTCLDY    65  58  78 CALM      29.73R
GRND FRKS AFB  CLEAR     64  58  80 SW5       29.75R
DEVILS LAKE    CLEAR     64  48  55 CALM      29.76R
$$

NDZ022-023-025-028>030-036>039-047>053-020200-
SOUTHEAST NORTH DAKOTA

CITY           SKY/WX    TMP DP  RH WIND       PRES   REMARKS
FARGO          PTCLDY    64  55  72 E8        29.75R
JAMESTOWN      CLEAR     63  53  70 NW6       29.79R
$$



USA.gov is the U.S. government's official web portal to all federal, state and local government web resources and services.